Weather Roundup
Issued by NWS Springfield, MO

Home | Current Version | Previous Version | Text Only | Print | Product List | Glossary On
Versions: 1 2 3 4 5 6 7 8 9 10 11 12 13 14 15 16 17 18 19 20 21 22 23 24 25 26 27 28 29 30 31 32 33 34 35 36 37 38 39 40 41 42 43 44 45 46 47 48 49 50
795
NZUS99 KSGF 280557
HRRSGF

HOURLY WEATHER
NATIONAL WEATHER SERVICE SPRINGFIELD MO
100 AM CDT THU JUL 28 2016

......SGF CWA......

CITY           SKY/WX    TMP DP  RH WIND       PRES   REMARKS
SPRINGFIELD    PTCLDY    74  70  87 CALM      29.97S
6HR MIN TEMP:  73; 6HR MAX TEMP:  82;

JOPLIN         CLOUDY    73  71  93 CALM      29.97R
6HR MIN TEMP:  72; 6HR MAX TEMP:  83;

WEST PLAINS    CLOUDY    72  69  90 NW3       29.99S
6HR MIN TEMP:  72; 6HR MAX TEMP:  74; 6HR PCP: TRACE;

ROLLA          PTCLDY    72  68  87 SW8       29.95S
6HR MIN TEMP:  72; 6HR MAX TEMP:  86;


......SURROUNDING SGF CWA......

CITY           SKY/WX    TMP DP  RH WIND       PRES   REMARKS
CHANUTE        PTCLDY    77  74  90 S3        29.97R
PARSONS        PTCLDY    76  73  91 CALM      29.98R
COFFEYVILLE    CLOUDY    77  74  90 CALM      29.95S
EMPORIA        CLEAR     76  74  93 CALM      29.98S
HARRISON AR    PTCLDY    73  71  93 N3        29.99R

......KANSAS AND MISSOURI......

CITY           SKY/WX    TMP DP  RH WIND       PRES   REMARKS
KANSAS CTY INT PTCLDY    76  71  85 CALM      29.96S
SEDALIA        CLEAR     77  73  87 NW3       29.95F
ST JOSEPH      PTCLDY    73  71  93 CALM      29.95S
ST LOUIS       CLOUDY    78  69  73 E5        29.92F THUNDER
WICHITA        PTCLDY    78  72  81 SE3       29.98F
TOPEKA         CLEAR     74  71  91 CALM      29.96F
OLATHE           N/A     75  71  87 MISG      29.96F

......TENNESSEE......

CITY           SKY/WX    TMP DP  RH WIND       PRES   REMARKS
MEMPHIS        NOT AVBL
NASHVILLE      CLOUDY    81  71  71 S5        29.96S

......ARKANSAS.......

CITY           SKY/WX    TMP DP  RH WIND       PRES   REMARKS
FAYETTEVILLE   PTCLDY    71  71 100 CALM      29.99R
FT SMITH       CLEAR     78  72  81 CALM      29.93S
LITTLE ROCK    MOCLDY    78  73  84 SW3       29.94R

......OKLAHOMA.......

CITY           SKY/WX    TMP DP  RH WIND       PRES   REMARKS
TULSA          MOCLDY    81  75  82 S3        29.93F
MCALESTER      MOCLDY    76  71  85 S3        29.96R
OKLAHOMA CITY  MOCLDY    75  72  90 SW3       29.97F

......IOWA............

CITY           SKY/WX    TMP DP  RH WIND       PRES   REMARKS
DES MOINES     NOT AVBL
QUAD CITIES    MOCLDY    74  68  81 CALM      29.91F

......ILLINOIS........

CITY           SKY/WX    TMP DP  RH WIND       PRES   REMARKS
QUINCY         NOT AVBL
CHICAGO        PTCLDY    74  66  76 CALM      29.93F




USA.gov is the U.S. government's official web portal to all federal, state and local government web resources and services.